Flag for France Weather past 2 weeks in Bastia, Corsica, France

Now
61 °F

Passing clouds.


Feels Like: 61 °F
Forecast: 60 / 70 °F
Wind: 2 mph from Northwest

Location: Bastia Airport

Current Time: May 6, 2015 at 12:22:57 AM

Latest Report: May 5, 2015 at 11:30 PM


Visibility: N/A

Pressure: 29.89 "Hg

Humidity: 100%

Dew point: 61 °F

Location of BastiaLocation

Historic Weather in Bastia — Graph

°F

Bastia temperature yesterday

Maximum temperature yesterday: 72 °F (at 11:30 AM)
Minimum temperature yesterday: 57 °F (at 6:00 AM)
Average temperature yesterday: 65 °F

Past Weeks' High & Low Weather Summary

 TemperatureHumidityPressure
High72 °F (Apr 21, 3:37 PM)100% (Apr 24, 1:30 AM)30.27 "Hg (Apr 24, 1:30 AM)
Low46 °F (Apr 20, 11:30 PM)28% (Apr 21, 10:30 AM)29.56 "Hg (Apr 27, 4:30 PM)
Average61 °F81%29.96 "Hg
* Reported Apr 20 11:00 PM — May 5 11:00 PM, Bastia, Weather by CustomWeather, © 2015

Note: Actual official high and low records may vary slightly from our data, if they occured in-between our weather recording intervals... More about our weather records

Advertising

Bastia weather history for previous 24 hours

 ConditionsComfort  
Time TempWeatherWind HumidityBarometerVisibility
11:00 PM
Tue, May 5
61 °FPassing clouds.No wind100%29.89 "HgN/A
10:30 PM61 °FPassing clouds.2 mph94%29.89 "HgN/A
10:00 PM63 °FPassing clouds.2 mph94%29.89 "HgN/A
9:30 PM63 °FPassing clouds.No wind94%29.86 "HgN/A
9:00 PM63 °FPartly sunny.1 mph94%29.86 "HgN/A
8:30 PM64 °FPartly sunny.3 mph88%29.86 "HgN/A
8:00 PM66 °FPartly sunny.3 mph83%29.86 "HgN/A
7:30 PM68 °FBroken clouds.2 mph78%29.86 "HgN/A
7:00 PM68 °FBroken clouds.3 mph83%29.86 "HgN/A
6:30 PM70 °FBroken clouds.5 mph78%29.86 "HgN/A
6:06 PM70 °FPartly sunny.5 mph78%29.86 "HgN/A
5:30 PM70 °FPartly sunny.5 mph78%29.86 "HgN/A
5:00 PM70 °FPartly sunny.6 mph78%29.86 "HgN/A
4:30 PM70 °FPartly sunny.5 mph78%29.86 "HgN/A
4:00 PM70 °FPartly sunny.7 mph78%29.86 "HgN/A
3:30 PM72 °FPartly sunny.7 mph73%29.86 "HgN/A
3:00 PM72 °FPartly sunny.7 mph73%29.86 "HgN/A
2:38 PM70 °FPartly sunny.7 mph78%29.86 "HgN/A
2:00 PM72 °FPartly sunny.7 mph73%29.86 "HgN/A
1:30 PM72 °FPartly sunny.7 mph73%29.86 "HgN/A
1:00 PM70 °FPartly sunny.7 mph78%29.89 "HgN/A
12:30 PM72 °FPartly sunny.7 mph73%29.89 "HgN/A
12:00 PM72 °FPartly sunny.6 mph73%29.89 "HgN/A
11:30 AM72 °FPartly sunny.6 mph73%29.89 "HgN/A
11:00 AM70 °FBroken clouds.3 mph78%29.89 "HgN/A
10:30 AM68 °FBroken clouds.3 mph78%29.89 "HgN/A
10:00 AM68 °FPartly sunny.3 mph83%29.89 "HgN/A
9:30 AM68 °FPartly sunny.2 mph83%29.86 "HgN/A
9:00 AM64 °FPartly sunny.No wind94%29.86 "HgN/A
8:34 AM63 °FClear.No wind94%29.86 "Hg6 mi
8:00 AM63 °FPartly sunny.No wind94%29.86 "Hg6 mi
7:30 AM59 °FPartly sunny.2 mph94%29.86 "Hg6 mi
7:00 AM59 °FPassing clouds.No wind94%29.86 "Hg6 mi
6:30 AM57 °FPassing clouds.2 mph100%29.86 "Hg6 mi
6:00 AM57 °FPassing clouds.1 mph100%29.86 "Hg5 mi
5:30 AM59 °FPassing clouds.1 mph94%29.83 "Hg5 mi
5:00 AM59 °FPassing clouds.1 mph100%29.86 "Hg5 mi
4:30 AM59 °FPassing clouds.3 mph94%29.86 "Hg5 mi
4:00 AM61 °FClear.3 mph94%29.86 "Hg5 mi
3:30 AM61 °FMostly cloudy.No wind100%29.86 "Hg5 mi
3:00 AM61 °FLow clouds.2 mph100%29.86 "Hg4 mi
2:30 AM61 °FFog.2 mph100%29.86 "Hg0 mi
2:00 AM61 °FFog.No wind94%29.89 "Hg3 mi
1:30 AM59 °FFog.2 mph100%29.89 "Hg1 mi
1:00 AM61 °FPassing clouds.2 mph94%29.89 "Hg4 mi
12:30 AM59 °FPassing clouds.2 mph100%29.89 "Hg4 mi
12:00 AM61 °FPartly cloudy.No wind94%29.89 "Hg4 mi
Weather by CustomWeather, © 2015

See weather overviewHow to use our weather pages